DELTA 1 DEB

Satellite information

Favourite Embed

Satellite Type and Status

DEBRISIN ORBIT

Key statistics

Satellite DELTA 1 DEB at a glance.

Uptime

18989

Days in orbit

Revolutions

≈ 12.6

Per day

Orbit

SSO

Sun Synchronous Orbit

Inclination

101.6

Latest

Satellite identification and parameters

Extended collection of information and parameters for DELTA 1 DEB.

Object identification

Identified? True

Debris? True

Object name: DELTA 1 DEB

International designator: 1973-086AC

Object number (NORAD): 7036

Object ID (CCSDS): 7036

Country: UNITED STATES OF AMERICA (US)

Current information (Y/N): Y

RCS size: MEDIUM

Orbital parameters

Period: 114.709 minutes

Inclination: 101.5764 deg

SMA: 7820.349 km

Apoapsis: 1482.245 km

Periapsis: 1402.184 km

RAAN: 279.2828 deg

Eccentricy: 0.00511875

Argument of periapsis: 294.1276 deg

Mean anomaly: 183.4684 deg

Mean motion: 12.55346314 rev/day

Mean motion (dot): 0.00001001 rev/day2

B* drag term: 0.0063752884 1/REarth

Two-line elements (TLE)

Creation date: Nov. 1, 2025, 7:40 p.m.

Reference frame: TEME

Reference center: EARTH

Epoch: Nov. 1, 2025, 11:31 a.m. UTC

TLE line 0: 0 DELTA 1 DEB

TLE line 1: 1 07036U 73086AC 25305.48055108 .00001001 00000-0 63753-2 0 9994

TLE line 2: 2 07036 101.5764 279.2828 0051188 294.1276 183.4684 12.55346314368560

Live tracking on map

Real-time ground track for satellite DELTA 1 DEB.

In-orbit conjunctions

A list of the most updated potential collisions computed for object DELTA 1 DEB.

Target Orbit TCA Probability of collision Miss distance Type
COSMOS 763 LEO 2025-07-19 01:44:34 0.0003272539 977.0 (m) PAYLOAD

Associated space launch

Meteorological satellite using radiometric imaging

DELTA 1 DEB was lifted into orbit during the mission ‘Delta 0300 | NOAA 3’, on board a Delta 0300 space rocket.

The launch took place on Nov. 6, 1973, 5:02 p.m. from Space Launch Complex 2W.

For more information about the launch, click the button.

Launch to space Delta 0300 | NOAA 3
Delta 0300 | NOAA 3

Agency: N/A

Status: Launch Successful

Launch date: Nov. 6, 1973, 5:02 p.m. UTC

Rocket: Delta 0300

Launch pad: Space Launch Complex 2W

Location: Vandenberg SFB, CA, USA

...

Latest news about this satellite

There are no fresh news available about this satellite. Check back as we update our databases every day.


Newsletter sign-up

Weekly statistics, charts and insights to help you stay on top of the space industry.